Location: Burg
(52.5953°N, 10.1067°E)
Time: 01:16:25
(UTC+00:00)

NOSS 2-3 (D) - Pass Details

Date: 13 December 2025
Orbit: 497 x 1701 km, 63.3° (Epoch: 24 April)

Event Time Altitude Azimuth Distance (km) Brightness Sun altitude
Rises 17:00:13 0° 213° (SSW) 2,601 7.6 -16.2°
Reaches altitude 10° 17:02:22 10° 209° (SSW) 1,697 6.5 -16.5°
Maximum altitude 17:05:57 57° 130° (SE) 602 3.3 -17.1°
Enters shadow 17:07:02 40° 74° (ENE) 778 3.5 -17.2°
